TimeNST,TemperatureF,Dew PointF,Humidity,Sea Level PressureIn,VisibilityMPH,Wind Direction,Wind SpeedMPH,Gust SpeedMPH,PrecipitationIn,Events,Conditions,WindDirDegrees,DateUTC
12:10 AM,47.7,44.1,87,29.96,-9999.0,South,15.0,-,N/A,,Unknown,180,2012-11-06 03:40:00
12:30 AM,47.7,43.3,85,29.95,-9999.0,South,15.0,-,N/A,,Unknown,170,2012-11-06 04:00:00
1:10 AM,47.3,43.7,87,29.95,-9999.0,SSE,13.8,-,N/A,,Unknown,160,2012-11-06 04:40:00
1:30 AM,47.7,44.1,87,29.94,-9999.0,SSE,13.8,-,N/A,,Unknown,160,2012-11-06 05:00:00
2:10 AM,47.7,45.0,90,29.93,-9999.0,SE,15.0,-,N/A,,Unknown,130,2012-11-06 05:40:00
2:30 AM,47,45,91,29.92,,ESE,16.1,,,,,110,2012-11-06 06:00:00
2:30 AM,47.3,45.1,92,29.92,-9999.0,ESE,16.1,-,N/A,,Unknown,110,2012-11-06 06:00:00
3:10 AM,47.3,45.7,94,29.89,-9999.0,ESE,16.1,-,N/A,,Unknown,110,2012-11-06 06:40:00
4:30 AM,47.3,45.9,95,29.83,-9999.0,East,18.4,-,N/A,,Unknown,90,2012-11-06 08:00:00
5:10 AM,47.1,46.2,97,29.78,-9999.0,East,24.2,-,N/A,,Unknown,80,2012-11-06 08:40:00
5:30 AM,46.9,45.5,95,29.75,-9999.0,ENE,26.5,-,N/A,,Unknown,70,2012-11-06 09:00:00
6:10 AM,46.9,45.3,94,29.66,-9999.0,East,34.5,-,N/A,,Unknown,80,2012-11-06 09:40:00
6:30 AM,46.6,45.5,96,29.59,-9999.0,ENE,39.1,46.0,N/A,,Unknown,60,2012-11-06 10:00:00
7:10 AM,46.4,45.9,98,29.49,-9999.0,ENE,44.9,52.9,N/A,,Unknown,70,2012-11-06 10:40:00
8:30 AM,57,55,92,29.40,,ENE,40.3,,,,,70,2012-11-06 12:00:00
8:30 AM,56.7,55.4,96,29.40,-9999.0,ENE,40.3,49.5,N/A,,Unknown,70,2012-11-06 12:00:00
9:10 AM,54.1,53.2,97,29.36,-9999.0,South,44.9,-,N/A,,Unknown,170,2012-11-06 12:40:00
9:30 AM,53.4,52.5,97,29.37,-9999.0,SSE,42.6,49.5,N/A,,Unknown,150,2012-11-06 13:00:00
10:10 AM,50.4,47.8,91,29.43,-9999.0,SW,39.1,46.0,N/A,,Unknown,230,2012-11-06 13:40:00
10:30 AM,49.6,46.4,89,29.50,-9999.0,South,35.7,-,N/A,,Unknown,170,2012-11-06 14:00:00
11:10 AM,49.5,45.1,85,29.60,-9999.0,West,36.8,46.0,N/A,,Unknown,260,2012-11-06 14:40:00
12:30 PM,48.7,45.3,88,29.69,-9999.0,West,26.5,-,N/A,,Unknown,260,2012-11-06 16:00:00
1:10 PM,47.8,42.1,80,29.73,-9999.0,WSW,34.5,42.6,N/A,,Unknown,250,2012-11-06 16:40:00
1:30 PM,46.6,41.4,82,29.74,-9999.0,WSW,38.0,46.0,N/A,,Unknown,250,2012-11-06 17:00:00
2:10 PM,46.4,40.8,81,29.77,-9999.0,West,40.3,48.3,N/A,,Unknown,260,2012-11-06 17:40:00
2:30 PM,46,40,73,29.81,,West,35.7,,,,,260,2012-11-06 18:00:00
2:30 PM,46.4,40.1,79,29.81,-9999.0,West,35.7,-,N/A,,Unknown,260,2012-11-06 18:00:00
3:10 PM,46.0,39.4,78,29.83,-9999.0,West,35.7,43.7,N/A,,Unknown,260,2012-11-06 18:40:00
3:30 PM,45.5,40.3,82,29.83,-9999.0,WSW,38.0,44.9,N/A,,Unknown,250,2012-11-06 19:00:00
4:10 PM,44.1,36.5,75,29.88,-9999.0,West,40.3,47.2,N/A,,Unknown,260,2012-11-06 19:40:00
5:30 PM,42.4,30.0,61,29.93,-9999.0,WSW,36.8,44.9,N/A,,Unknown,250,2012-11-06 21:00:00
6:10 PM,42.3,29.3,60,29.96,-9999.0,West,36.8,43.7,N/A,,Unknown,270,2012-11-06 21:40:00
6:30 PM,42.4,31.3,65,29.98,-9999.0,WSW,33.4,40.3,N/A,,Unknown,250,2012-11-06 22:00:00
7:10 PM,42.4,29.3,60,30.00,-9999.0,West,34.5,44.9,N/A,,Unknown,260,2012-11-06 22:40:00
7:30 PM,42.3,32.0,67,30.01,-9999.0,WSW,34.5,41.4,N/A,,Unknown,250,2012-11-06 23:00:00
8:10 PM,41.9,30.6,64,30.03,-9999.0,West,33.4,41.4,N/A,,Unknown,260,2012-11-06 23:40:00
8:30 PM,42,30,51,30.04,,WSW,33.4,,,,,250,2012-11-07 00:00:00
8:30 PM,41.7,30.0,63,30.04,-9999.0,WSW,33.4,40.3,N/A,,Unknown,250,2012-11-07 00:00:00
9:10 PM,41.5,28.6,60,30.06,-9999.0,West,34.5,41.4,N/A,,Unknown,270,2012-11-07 00:40:00
9:30 PM,41.7,30.7,65,30.07,-9999.0,West,33.4,41.4,N/A,,Unknown,260,2012-11-07 01:00:00
10:10 PM,41.4,28.6,60,30.08,-9999.0,West,32.2,42.6,N/A,,Unknown,260,2012-11-07 01:40:00
10:30 PM,41.2,27.9,59,30.08,-9999.0,West,34.5,40.3,N/A,,Unknown,260,2012-11-07 02:00:00
11:10 PM,41.5,31.1,66,30.08,-9999.0,West,31.1,38.0,N/A,,Unknown,260,2012-11-07 02:40:00
11:30 PM,41.0,29.3,63,30.08,-9999.0,West,31.1,38.0,N/A,,Unknown,260,2012-11-07 03:00:00